Zurück zum Katalog

FENGYUN 1C DEB

LostPO
NORAD 32305·DEBRIS·🇨🇳 China

Gestartet May 10, 1999 von Taiyuan Satellite Launch Center

Loading…

Nächste Überflüge (nächste 24 Stunden)

TLE

VeraltetSource: Space-Track

Epoche: Aug 21, 2022, 20:14 UTC

1 32305U 99025CWW 22233.84371743  .00002280  00000-0  12802-2 0  9994
2 32305  97.9974 244.5779 0207615 339.5188  19.7744 14.01086184754142

Verfolge FENGYUN 1C DEB in Echtzeit mit AllMySat

Download on the App Store